sat.trackr.live / text

‹ back to catalog

TRANSPORTER-15 OBJECT CN

NORAD 66750 · 2025-276CN

PAYLOAD ACTIVE UNKNOWN

§ Identity

Operator
Country
TBD
Launch date
2025-11-28
Launch site
AFWTR
Launch vehicle
Mass (kg)
RCS (m²)

External: N2YO · Heavens-Above · Gunter

§ Orbital elements

Epoch: 2026-09-20T16:05:25.262592Z

Period
94.71 min
Inclination
97.4148°
Eccentricity
0.0001584
Mean motion
15.20480811 rev/d
Perigee alt
503.3 km
Apogee alt
505.5 km
Semi-major
6,882.5 km
B*
1.2149e-4
RAAN
335.8473°
Arg perigee
22.0182°
Mean anomaly
338.1121°
Rev number
4,493

§ Raw data

TRANSPORTER-15 OBJECT CN1 66750U 25276CN  26263.67043128  .00002585  00000+0  12149-3 0  99952 66750  97.4148 335.8473 0001584  22.0182 338.1121 15.20480811 44934

JSON: /api/v1/satellites/66750 · /tle

For live sub-satellite position, see the globe view (requires WebGL).

§ Visibility from observer

Set your observer location to see the next 7 days of passes ≥ 10°. The values pass through the URL so the page stays shareable.

No JS? Fill the form by hand. The geolocation button needs JavaScript.